    Observer details:
    012 Uccle.  Observer T. Pauwels.  0.85-m f/2.5 Schmidt + CCD.
    143 Gnosca.  Observer S. Sposetti.  0.40-m f/4 reflector + CCD.
    204 Schiaparelli Observatory.  Observers L. Buzzi, M. Sambo.  0.60-m f/4.64
        Newtonian + CCD.
    448 Desert Moon Observatory.  Observer B. L. Stevens.  0.3-m
        Schmidt-Cassegrain + CCD.
    474 Mount John Observatory, Lake Tekapo.  Observers A. C. Gilmore,
        P. M. Kilmartin.  0.6-m f/6.4 reflector + CCD.
    557 Ondrejov.  Observer P. Kusnirak.  0.65-m f/3.6 reflector + CCD.
    649 Powell Observatory, Louisburg.  Observer R. Fredrick.  0.75-m Newtonian
        + CCD.
    704 Lincoln Laboratory ETS, New Mexico.  Observers M. Blythe, F. Shelly,
        M. Bezpalko, R. Huber, L. Manguso, D. Torres, R. Kracke, M. McCleary,
        H. Stange, A. Milner.  Measurers J. Stuart, R. Sayer, J. Evans, J. Kommers.
        1.0-m f/2.15 reflector + CCD.
    926 Tenagra II Observatory.  Observers P. R. Holvorcem, M. Schwartz.  0.81-m
        f/7 Ritchey-Chretien + CCD.
    H06 New Mexico Skies Observatory.  Observer R. Hutsebaut.
    H36 Sandlot Observatory, Scranton.  Observer G. Hug.  0.3-m Schmidt-Cassegrain
        + CCD.
    I05 Las Campanas Observatory-TIE.  Observers G. Masi, F. Mallia.  0.36-m SoTIE
        reflector + CCD.
    
    Orbital elements:
    2004 FH
    Epoch 2004 July 14.0 TT = JDT 2453200.5                 MPC
    M  28.11811              (2000.0)            P               Q
    n   1.33328150     Peri.   21.69920     +0.84276516     +0.53828134
    a   0.8175635      Node   305.73407     -0.49391708     +0.77308733
    e   0.2889616      Incl.    0.02086     -0.21399254     +0.33554310
    P   0.74           H   25.7           G   0.15           U   5
    
    2004 FH
    Epoch 2004 Mar. 17.0 TT = JDT 2453081.5                 MPC
    M 216.14293              (2000.0)            P               Q
    n   1.42999719     Peri.  338.56517     +0.91999035     +0.39193707
    a   0.7802718      Node   358.35662     -0.35010044     +0.81975466
    e   0.3185313      Incl.    3.51433     -0.17620285     +0.41759744
    P   0.69           H   25.7           G   0.15           U   5
    Residuals in seconds of arc
    040316 704  0.1+  0.2+    040318 012  0.1+  0.0-    040318 557  0.3+  0.2-
    040316 704  0.4-  0.2+    040318 012  0.5+  1.1+    040318 448  0.5+  0.7+
    040316 704  0.1+  0.1-    040318 012  0.2+  0.4-    040318 448  0.6+  0.9+
    040316 704  0.5-  0.0+    040318 012  1.0+  1.2-    040318 448  0.3-  0.7+
    040317 704  0.0+  0.1-    040318 012  0.3-  0.5-    040318 448  0.0+  0.1+
    040317 704  0.0-  0.1+    040318 557  0.0-  0.0+    040318 448  0.8-  0.1-
    040317 704  0.3+  0.0+    040318 557  0.1+  0.2-    040318 448  0.1+  0.2+
    040317 704  0.2-  0.3-    040318 557  0.1+  0.1+    040318 649  0.5-  0.1+
    040317 704  0.4+  0.2+    040318 557  0.1-  0.2-    040318 649  0.1-  0.1+
    040317 704  0.4+  0.4-    040318 557  0.3+  0.1+    040318 649  0.9-  0.6-
    040317 704  0.1-  0.1+    040318 557  0.2-  0.3-    040318 448  0.1+  0.1-
    040317 704  0.0+  0.1-    040318 557  0.3-  0.1-    040318 448  1.0-  0.3-
    040317 704  0.2+  0.1+    040318 557  0.2+  0.3+    040318 448  0.1-  0.3+
    040317 704  0.1+  0.0+    040318 557  0.1+  0.3-    040318 649  0.2-  0.1-
    040317 246  2.0+  1.4+    040318 557  0.1-  0.2-    040318 649  0.5-  0.1-
    040317 246  1.5+  1.0+    040318 557  0.1+  0.1-    040318 649  1.2-  0.4-
    040317 246  1.2+  1.1+    040318 557  0.3+  0.2-    040318 H06  1.1+  0.1+
    040317 246  1.1+  0.9+    040318 204  0.2-  0.3-    040318 H06  0.6+  0.4+
    040317 611  0.6-  0.1-    040318 204  0.1-  0.0-    040318 H06  0.5+  0.1+
    040317 611  0.7-  0.1+    040318 204  0.4-  0.2-    040318 H06  0.5+  0.2-
    040317 611  0.4-  0.0-    040318 204  0.4-  0.1-    040318 H06  0.7+  0.3+
    040317 611  0.4-  0.2-    040318 557  0.0+  0.1-    040318 H06  0.1-  0.3-
    040317 118  0.3-  0.2-    040318 557  0.2-  0.4-    040318 H06  0.5+  0.2+
    040317 118  0.0-  0.1-    040318 557  0.2-  0.1-    040318 H06  0.3+  0.0+
    040317 118  0.4-  0.3-    040318 557  0.0+  0.1+    040318 H06  0.6+  0.2+
    040317 118  0.1-  0.1-    040318 557  0.5-  0.4-    040318 H06  0.7+  0.0+
    040317 118  0.1-  0.0-    040318 557  0.1-  0.3-    040318 H06  0.5+  0.1-
    040317 143  1.7-  0.5-    040318 557  0.4+  0.3+    040318 H06  0.7+  0.2+
    040317 143 (2.7-  1.8-)   040318 557  0.7-  0.5-    040318 H36  1.1-  0.8-
    040317 143 (2.8-  1.7-)   040318 557  0.1+  0.1+    040318 H36  0.0-  0.6+
    040317 143 (2.7-  1.6-)   040318 557  0.1-  0.5-    040318 H36  0.1+  0.6+
    040317 143 (2.9-  1.7-)   040318 557  0.0+  0.2-    040318 926  0.2-  0.1+
    040317 143 (3.3-  2.0-)   040318 I05  0.4+  0.6+    040318 926  0.5+  0.6+
    040317 143 (2.8-  1.9-)   040318 I05  0.2+  1.6+    040318 926  0.1-  0.2+
    040317 143 (2.7-  1.3-)   040318 I05  0.7+  0.2+    040318 474  1.0-  1.1-
    040317 143 (3.0-  1.8-)   040318 557  0.2+  0.2-    040318 474  0.2-  0.4+
    040317 143 (2.5-  1.6-)   040318 557  0.1+  0.2-    040318 474  1.3-  0.7-
    040318 204  0.7-  0.2-    040318 557  0.2-  0.3-    040318 474  0.5-  0.4-
    040318 204  0.5-  0.3-    040318 557  0.4-  0.4-    040318 474 (2.8-  1.4-)
    040318 204  0.9-  0.3-    040318 557  0.0-  0.4-    040318 474  0.6+  0.1-
    040318 204  0.6-  0.4-    040318 557  0.3+  0.1+    040318 474  0.9+  0.6+
    
         2004 FH will approach the earth to 0.00033 AU on March 18.92 UT.
    
    Gareth V. Williams           (C) Copyright 2004 MPC           M.P.E.C. 2004-F26
    

    Read MPEC 2004-F25 Read MPEC 2004-F27


    MPEC number:

    Enter an MPEC number in one of the following forms:

    • 1997-B01 (the full form)
    • J97B01 (the packed version of the full form)
    • B01 (the abbreviated form)